AA3CS-1 Weather Reports


Display with metric or nautical units.
time (UTC)temp
F
wind
direction
speed
MPH
gust
MPH
rain 1hr
in
rain 24hr
in
rain mn
in
humidity
%
barometer
mb
20260506121517 45 338 2.0 9.0 0.00 1.32 0.41 91 1009.0
20260506121017 44 338 3.0 6.0 0.00 1.32 0.41 91 1008.9
20260506120517 44 315 1.0 5.0 0.00 1.32 0.41 92 1008.9
20260506120017 44 315 1.0 3.0 0.00 1.32 0.41 92 1009.1
20260506115517 44 315 2.0 3.0 0.00 1.32 0.41 92 1009.1
20260506115017 44 315 1.0 3.0 0.00 1.32 0.41 92 1009.1
20260506114516 44 315 1.0 4.0 0.00 1.32 0.41 92 1009.0
20260506114017 44 315 2.0 5.0 0.00 1.32 0.41 92 1009.3
20260506113517 44 23 2.0 4.0 0.00 1.32 0.41 92 1009.2
20260506113017 44 23 1.0 4.0 0.00 1.32 0.41 92 1008.9
20260506112517 44 315 2.0 5.0 0.00 1.32 0.41 92 1008.8
20260506112017 44 338 1.0 4.0 0.00 1.32 0.41 91 1008.6
20260506111537 44 293 2.0 5.0 0.00 1.32 0.41 92 1008.4
20260506111017 44 315 3.0 8.0 0.00 1.32 0.41 92 1008.5
20260506110516 44 315 2.0 7.0 0.00 1.32 0.41 93 1008.9
20260506110017 44 293 2.0 5.0 0.00 1.32 0.41 92 1008.8
20260506105516 44 338 2.0 6.0 0.00 1.32 0.41 92 1008.5
20260506105016 44 315 3.0 9.0 0.00 1.32 0.41 93 1008.2
20260506104516 44 315 3.0 6.0 0.00 1.32 0.41 93 1008.4
20260506104016 44 315 3.0 9.0 0.00 1.32 0.41 93 1008.3
20260506103516 44 315 3.0 8.0 0.00 1.32 0.41 93 1008.2
20260506103016 44 315 2.0 5.0 0.01 1.32 0.41 93 1007.6
20260506102517 44 338 1.0 3.0 0.01 1.32 0.41 93 1007.4
20260506102016 44 338 2.0 4.0 0.01 1.32 0.41 93 1007.6
20260506101537 44 45 1.0 3.0 0.02 1.32 0.41 93 1007.6
20260506101016 44 68 1.0 3.0 0.02 1.32 0.41 93 1007.3
20260506100516 44 45 1.0 5.0 0.03 1.32 0.41 93 1007.1
20260506100017 44 45 1.0 3.0 0.03 1.32 0.41 93 1006.9
20260506095517 44 0.0 2.0 0.04 1.32 0.41 93 1007.1
20260506095016 44 0 1.0 5.0 0.04 1.32 0.41 93 1007.3
20260506094537 44 68 1.0 4.0 0.04 1.32 0.41 93 1007.4
20260506094017 44 338 1.0 2.0 0.04 1.32 0.41 93 1007.6
20260506093516 44 338 1.0 3.0 0.04 1.32 0.41 93 1008.0
20260506093016 44 338 2.0 5.0 0.03 1.31 0.40 93 1008.2
20260506092516 44 338 1.0 5.0 0.03 1.31 0.40 93 1008.3
20260506092037 44 338 2.0 4.0 0.03 1.31 0.40 93 1008.1
20260506091516 44 315 1.0 4.0 0.03 1.30 0.39 93 1008.0
20260506091016 44 315 1.0 4.0 0.03 1.30 0.39 93 1008.0
20260506090516 43 315 1.0 4.0 0.02 1.29 0.38 93 1008.0
20260506090056 43 0.0 2.0 0.03 1.29 0.38 93 1007.8
20260506085516 43 315 1.0 3.0 0.03 1.28 0.37 93 1008.1
20260506085017 43 315 1.0 3.0 0.04 1.28 0.37 93 1008.0
20260506084536 43 315 2.0 5.0 0.05 1.28 0.37 93 1007.9
20260506084017 43 315 2.0 5.0 0.07 1.28 0.37 92 1007.8
20260506083517 43 0 2.0 6.0 0.08 1.28 0.37 92 1007.6
20260506083036 43 0 2.0 5.0 0.09 1.28 0.37 92 1007.7
20260506082516 43 0 1.0 4.0 0.10 1.28 0.37 92 1007.7
20260506082016 43 338 2.0 4.0 0.11 1.28 0.37 92 1007.8
20260506081517 43 23 2.0 5.0 0.10 1.27 0.36 91 1007.9
20260506081016 43 338 2.0 8.0 0.11 1.27 0.36 91 1007.8
20260506080536 43 293 2.0 7.0 0.12 1.27 0.36 91 1007.8
20260506073516 44 293 3.0 8.0 0.11 1.20 0.29 93 1008.0
20260506073016 44 338 2.0 8.0 0.11 1.19 0.28 93 1007.9
20260506072516 44 338 3.0 8.0 0.10 1.18 0.27 92 1007.7
20260506072016 44 315 2.0 5.0 0.10 1.17 0.26 92 1007.6
20260506071516 44 315 2.0 5.0 0.10 1.17 0.26 93 1007.5
20260506071016 44 23 1.0 4.0 0.10 1.16 0.25 93 1007.5
20260506070516 44 338 1.0 3.0 0.09 1.15 0.24 93 1007.4
20260506062516 44 0 1.0 3.0 0.07 1.08 0.17 92 1007.5
20260506062036 44 0 1.0 3.0 0.07 1.07 0.16 91 1007.4
20260506061516 44 315 2.0 6.0 0.07 1.07 0.16 91 1007.5
20260506061016 44 23 1.0 4.0 0.07 1.06 0.15 91 1007.6
20260506060516 45 338 2.0 7.0 0.07 1.06 0.15 90 1007.7
20260506051016 46 315 2.0 4.0 0.07 0.99 0.08 91 1008.1
20260506050516 46 338 2.0 7.0 0.07 0.99 0.08 90 1008.2
20260506045016 47 45 1.0 5.0 0.08 0.98 0.07 92 1008.3
20260506044536 47 23 2.0 6.0 0.07 0.97 0.06 92 1008.2
20260506044016 47 45 2.0 4.0 0.07 0.96 0.05 92 1008.5
20260506043516 47 23 1.0 4.0 0.08 0.96 0.05 92 1008.4
20260506043016 47 23 2.0 4.0 0.07 0.95 0.04 92 1008.4
20260506042516 47 23 1.0 3.0 0.07 0.94 0.03 91 1008.7
20260506042016 47 23 1.0 9.0 0.06 0.93 0.02 91 1008.5
20260506041516 47 270 1.0 3.0 0.07 0.93 0.02 92 1008.6
20260506041016 47 45 1.0 4.0 0.06 0.92 0.01 92 1008.6
20260506040516 47 0 1.0 4.0 0.07 0.92 0.01 92 1008.6
20260506040016 47 0 1.0 3.0 0.06 0.91 0.91 92 1008.6
20260506035516 48 0 1.0 4.0 0.07 0.91 0.91 92 1008.7
20260506035016 48 0 1.0 4.0 0.06 0.90 0.90 92 1008.8
20260506034516 48 0 2.0 3.0 0.06 0.90 0.90 92 1008.9
20260506034016 48 338 2.0 5.0 0.06 0.89 0.89 92 1008.9
20260506033516 48 315 2.0 7.0 0.06 0.88 0.88 92 1008.9
20260506033016 48 315 2.0 5.0 0.06 0.88 0.88 92 1009.0
20260506032516 48 45 1.0 4.0 0.06 0.87 0.87 92 1008.9
20260506032036 48 293 1.0 2.0 0.06 0.87 0.87 92 1008.9
20260506031516 48 293 2.0 4.0 0.06 0.86 0.86 92 1009.0
20260506031016 48 45 1.0 3.0 0.07 0.86 0.86 92 1008.9
20260506030516 48 293 2.0 4.0 0.06 0.85 0.85 92 1008.9
20260506030016 48 45 1.0 6.0 0.07 0.85 0.85 92 1008.8
20260506025617 48 23 1.0 5.0 0.09 0.84 0.84 92 1008.9
20260506025016 48 0.0 2.0 0.11 0.84 0.84 92 1009.1
20260506024516 48 45 1.0 5.0 0.13 0.84 0.84 92 1009.2
20260506024016 48 0 1.0 4.0 0.14 0.83 0.83 92 1009.5
20260506023536 48 0 1.0 4.0 0.15 0.82 0.82 92 1009.4
20260506023036 48 23 2.0 6.0 0.16 0.82 0.82 92 1009.2
20260506022536 48 158 2.0 5.0 0.18 0.81 0.81 92 1009.0
20260506022016 48 45 3.0 5.0 0.20 0.81 0.81 92 1008.9
20260506021516 48 293 1.0 4.0 0.22 0.80 0.80 92 1008.8
20260506021016 48 68 1.0 4.0 0.22 0.79 0.79 92 1008.5
20260506020516 48 45 2.0 5.0 0.25 0.79 0.79 92 1008.4
20260506020056 48 23 1.0 3.0 0.28 0.78 0.78 92 1008.4
20260506015516 49 45 2.0 5.0 0.27 0.75 0.75 92 1008.3
20260506015016 49 68 3.0 6.0 0.27 0.73 0.73 92 1008.2
20260506014516 49 45 3.0 7.0 0.27 0.71 0.71 92 1008.1
20260506014016 49 23 1.0 4.0 0.26 0.69 0.68 92 1008.2
20260506013516 49 338 2.0 5.0 0.25 0.67 0.67 92 1008.1
20260506013016 49 0 1.0 3.0 0.25 0.66 0.65 91 1008.0
20260506012516 50 315 3.0 7.0 0.22 0.63 0.63 91 1008.0
20260506012036 50 23 1.0 4.0 0.21 0.61 0.61 92 1008.0
20260506011516 50 45 1.0 3.0 0.18 0.58 0.58 92 1007.9
20260506011016 50 315 2.0 5.0 0.17 0.57 0.57 92 1007.8
20260506010516 50 45 2.0 4.0 0.15 0.54 0.54 92 1007.8
20260506010016 50 68 2.0 7.0 0.11 0.50 0.50 92 1007.6
20260506005516 50 45 3.0 6.0 0.09 0.48 0.48 92 1007.5
20260506005016 50 45 4.0 9.0 0.07 0.46 0.46 92 1007.5
20260506004536 51 68 1.0 3.0 0.05 0.44 0.44 92 1007.5
20260506004036 51 45 2.0 5.0 0.04 0.43 0.43 92 1007.6
20260506003516 51 45 1.0 3.0 0.03 0.42 0.42 91 1007.6
20260506003015 51 45 1.0 5.0 0.03 0.41 0.41 91 1007.5
20260506002516 51 45 1.0 4.0 0.05 0.41 0.41 91 1007.5
20260506002016 51 45 1.0 4.0 0.04 0.40 0.40 91 1007.5
20260506001515 52 45 2.0 5.0 0.06 0.40 0.40 91 1007.6
20260506001036 52 45 1.0 3.0 0.07 0.40 0.40 90 1007.6
20260506000515 52 23 2.0 4.0 0.07 0.39 0.39 90 1007.5
20260506000036 52 45 2.0 6.0 0.09 0.39 0.39 90 1007.5
20260505235515 53 0 1.0 3.0 0.10 0.39 0.39 90 1007.5
20260505235015 53 0 1.0 3.0 0.14 0.39 0.39 89 1007.4
20260505234535 53 45 2.0 4.0 0.26 0.39 0.39 90 1007.6
20260505234036 54 0 3.0 5.0 0.32 0.39 0.39 90 1007.7
20260505233516 55 338 3.0 8.0 0.35 0.39 0.39 91 1007.8
20260505233016 55 0.0 2.0 0.36 0.38 0.38 92 1007.9
20260505232516 55 0.0 2.0 0.35 0.36 0.36 92 1007.9
20260505232016 55 315 1.0 2.0 0.35 0.36 0.36 92 1007.9
20260505231516 55 315 1.0 4.0 0.33 0.34 0.34 92 1008.0
20260505231016 55 0 2.0 8.0 0.32 0.33 0.33 92 1007.9
20260505230516 55 270 3.0 7.0 0.31 0.32 0.32 92 1008.0
20260505230036 55 293 3.0 6.0 0.29 0.30 0.30 91 1007.9
20260505225516 55 270 4.0 8.0 0.28 0.29 0.29 91 1008.0
20260505225056 56 293 4.0 8.0 0.24 0.25 0.25 91 1007.9
20260505224516 56 270 6.0 10.0 0.12 0.13 0.13 91 1008.7
20260505224016 56 293 5.0 11.0 0.06 0.07 0.07 90 1007.8
20260505223516 56 293 2.0 5.0 0.03 0.04 0.04 90 1007.8
20260505223036 56 293 1.0 3.0 0.01 0.02 0.02 89 1007.6
20260505222516 57 293 1.0 2.0 0.00 0.01 0.01 89 1007.5
20260505222036 57 293 1.0 4.0 0.00 0.01 0.01 89 1007.6
20260505221516 57 293 3.0 7.0 0.00 0.01 0.01 88 1007.7
20260505221016 57 315 1.0 3.0 0.00 0.01 0.01 88 1007.5
20260505220535 57 293 3.0 6.0 0.00 0.01 0.01 88 1007.6
20260505220035 57 293 3.0 7.0 0.00 0.01 0.01 87 1007.8
20260505215515 57 315 2.0 7.0 0.00 0.01 0.01 88 1007.8
20260505215016 57 315 1.0 5.0 0.00 0.01 0.01 88 1007.8
20260505214535 57 315 2.0 4.0 0.00 0.01 0.01 89 1007.9
20260505214016 57 315 2.0 3.0 0.00 0.01 0.01 88 1007.9
20260505213515 57 293 3.0 6.0 0.00 0.01 0.01 88 1007.9
20260505213016 57 293 3.0 4.0 0.00 0.01 0.01 88 1007.9
20260505212515 57 293 3.0 7.0 0.00 0.01 0.01 88 1007.9
20260505212036 57 293 2.0 4.0 0.00 0.01 0.01 88 1007.9
20260505211515 57 315 2.0 4.0 0.00 0.01 0.01 88 1007.7
20260505211016 57 315 1.0 2.0 0.01 0.01 0.01 88 1007.8
20260505210515 57 293 2.0 4.0 0.01 0.01 0.01 88 1007.8
20260505210015 57 270 1.0 3.0 0.01 0.01 0.01 88 1007.9
20260505205516 57 270 1.0 4.0 0.01 0.01 0.01 88 1008.0
20260505205016 57 315 2.0 6.0 0.01 0.01 0.01 87 1008.2
20260505204515 58 315 1.0 2.0 0.01 0.01 0.01 86 1007.8
20260505204035 58 0.0 2.0 0.01 0.01 0.01 86 1007.9
20260505203516 58 315 2.0 4.0 0.01 0.01 0.01 86 1008.0
20260505203016 58 293 3.0 9.0 0.01 0.01 0.01 85 1008.1
20260505202535 59 293 3.0 5.0 0.01 0.01 0.01 84 1008.0
20260505202016 59 315 3.0 8.0 0.01 0.01 0.01 82 1007.9
20260505201515 60 270 6.0 11.0 0.01 0.01 0.01 79 1008.0
20260505201015 61 270 8.0 13.0 0.00 0.00 0.00 76 1008.0
20260505200516 62 270 6.0 11.0 0.00 0.00 0.00 73 1007.7
20260505200015 63 203 4.0 11.0 0.00 0.00 0.00 72 1007.9
20260505195515 63 203 2.0 7.0 0.00 0.00 0.00 72 1007.8
20260505195015 63 248 1.0 3.0 0.00 0.00 0.00 72 1007.9
20260505194515 63 203 1.0 3.0 0.00 0.00 0.00 71 1007.9
20260505194017 63 203 1.0 2.0 0.00 0.00 0.00 70 1008.0
20260505193537 64 203 1.0 4.0 0.00 0.00 0.00 70 1008.0
20260505193017 64 203 1.0 3.0 0.00 0.00 0.00 71 1008.0
20260505192517 63 203 1.0 2.0 0.00 0.00 0.00 70 1008.0
20260505192017 63 203 1.0 3.0 0.00 0.00 0.00 70 1008.0
20260505191517 63 203 1.0 3.0 0.00 0.00 0.00 71 1008.0
20260505191017 63 203 1.0 2.0 0.00 0.00 0.00 70 1008.1
20260505190517 63 203 1.0 3.0 0.00 0.00 0.00 71 1008.2
20260505190017 63 203 1.0 3.0 0.00 0.00 0.00 71 1008.2
20260505185517 63 180 1.0 4.0 0.00 0.00 0.00 72 1008.3
20260505185017 62 225 1.0 3.0 0.00 0.00 0.00 74 1008.2
20260505184517 62 0.0 2.0 0.00 0.00 0.00 72 1008.4
20260505184017 62 203 1.0 3.0 0.00 0.00 0.00 72 1008.5
20260505183517 62 225 1.0 6.0 0.00 0.00 0.00 71 1008.6
20260505183017 62 203 1.0 4.0 0.00 0.00 0.00 71 1008.6
20260505182517 62 225 1.0 5.0 0.00 0.00 0.00 71 1008.6
20260505182017 62 203 2.0 5.0 0.00 0.00 0.00 71 1008.7
20260505181517 62 270 2.0 4.0 0.00 0.00 0.00 71 1008.6
20260505181017 62 270 2.0 6.0 0.00 0.00 0.00 69 1008.6
20260505180517 62 225 3.0 8.0 0.00 0.00 0.00 69 1008.5
20260505180017 62 248 3.0 9.0 0.00 0.00 0.00 70 1008.4
20260505175515 62 270 3.0 7.0 0.00 0.00 0.00 69 1008.4
20260505175017 63 270 4.0 13.0 0.00 0.00 0.00 68 1008.3
20260505174517 63 270 4.0 10.0 0.00 0.00 0.00 67 1008.3
20260505174017 63 270 7.0 18.0 0.00 0.00 0.00 66 1008.3
20260505173517 63 293 7.0 14.0 0.00 0.00 0.00 66 1008.2
20260505173017 64 293 5.0 13.0 0.00 0.00 0.00 66 1008.3
20260505172517 64 248 5.0 14.0 0.00 0.00 0.00 66 1008.4
20260505172017 64 293 4.0 11.0 0.00 0.00 0.00 67 1008.3
20260505171537 64 270 7.0 18.0 0.00 0.00 0.00 64 1008.2
20260505171017 65 270 6.0 17.0 0.00 0.00 0.00 63 1008.2
20260505170517 65 270 5.0 10.0 0.00 0.00 0.00 63 1008.2
20260505170017 65 270 6.0 12.0 0.00 0.00 0.00 63 1008.2
20260505165517 65 270 4.0 11.0 0.00 0.00 0.00 63 1008.2
20260505165037 65 270 7.0 17.0 0.00 0.00 0.00 61 1008.1
20260505164537 65 270 6.0 20.0 0.00 0.00 0.00 63 1008.1
20260505164017 65 270 5.0 13.0 0.00 0.00 0.00 62 1008.1
20260505163517 65 203 4.0 14.0 0.00 0.00 0.00 61 1008.1
20260505163037 65 270 6.0 15.0 0.00 0.00 0.00 62 1008.1
20260505162517 66 270 4.0 10.0 0.00 0.00 0.00 61 1008.1
20260505162017 66 248 4.0 10.0 0.00 0.00 0.00 62 1008.3
20260505161557 66 270 3.0 8.0 0.00 0.00 0.00 61 1008.2
20260505161017 66 180 3.0 10.0 0.00 0.00 0.00 59 1008.1
20260505160517 67 248 4.0 13.0 0.00 0.00 0.00 59 1008.1
20260505153017 68 180 4.0 10.0 0.00 0.00 0.00 61 1007.5
20260505152517 67 248 4.0 13.0 0.00 0.00 0.00 63 1007.2
20260505152017 67 180 5.0 16.0 0.00 0.00 0.00 68 1007.3
20260505151537 66 180 6.0 13.0 0.00 0.00 0.00 63 1007.5
20260505151017 66 248 3.0 8.0 0.00 0.00 0.00 64 1007.6
20260505150537 66 248 3.0 9.0 0.00 0.00 0.00 65 1007.5
20260505140517 64 203 6.0 16.0 0.00 0.00 0.00 66 1007.3
20260505125037 59 180 3.0 8.0 0.00 0.00 0.00 76 1007.0
20260505124517 58 180 2.0 5.0 0.00 0.00 0.00 76 1007.2
20260505124017 58 180 2.0 4.0 0.00 0.00 0.00 76 1007.2
20260505123516 58 203 1.0 6.0 0.00 0.00 0.00 76 1007.2
20260505123017 58 0.0 2.0 0.00 0.00 0.00 78 1007.2
20260505122517 58 203 1.0 8.0 0.00 0.00 0.00 77 1007.1
20260505122017 58 270 2.0 3.0 0.00 0.00 0.00 78 1007.0